When you browse on this site, cookies collect data to enhance your experience and personalize the content and advertising you see.
Visit our Privacy Policy to learn more. By continuing to use the site, you agree to this use of cookies and data.
  • In Romania
  • List of Countries
  • For 7 days
  • Water Temperature
  • Satellite Maps
  • Weather Map
  • Weather Widgets
  • user-avatar
    Login

    Hourly Weather Dęblin

    Today, 21 March, Thursday

    Time Temperature Precipitation Wind Pressure Humidity
    00:00 +2°C° 0 mm 3 mps 763 mmHg 66%
    01:00 +1°C° 0 mm 4 mps 763 mmHg 65%
    02:00 +3°C° 0 mm 4 mps 763 mmHg 65%
    03:00 +3°C° 0 mm 4 mps 763 mmHg 64%
    04:00 +4°C° 0 mm 4 mps 762 mmHg 64%
    05:00 +4°C° 0 mm 4 mps 763 mmHg 66%
    06:00 +4°C° 0 mm 4 mps 763 mmHg 69%
    07:00 +4°C° 0 mm 4 mps 763 mmHg 72%
    08:00 +5°C° 0 mm 4 mps 763 mmHg 72%
    09:00 +6°C° 0 mm 4 mps 763 mmHg 73%
    10:00 +7°C° 0 mm 5 mps 763 mmHg 74%
    11:00 +8°C° 0 mm 5 mps 763 mmHg 73%
    12:00 +8°C° 0 mm 5 mps 763 mmHg 72%
    13:00 +8°C° 0 mm 5 mps 763 mmHg 71%
    14:00 +9°C° 0 mm 5 mps 762 mmHg 70%
    15:00 +9°C° 0 mm 5 mps 762 mmHg 68%
    16:00 +9°C° 0 mm 5 mps 762 mmHg 67%
    17:00 +8°C° 0 mm 4 mps 762 mmHg 73%
    18:00 +7°C° 0 mm 4 mps 762 mmHg 79%
    19:00 +7°C° 0 mm 3 mps 762 mmHg 84%
    20:00 +7°C° 0 mm 3 mps 762 mmHg 87%
    21:00 +7°C° 0 mm 3 mps 762 mmHg 90%
    22:00 +5°C° 0 mm 4 mps 762 mmHg 93%
    23:00 +6°C° 0 mm 4 mps 762 mmHg 92%

    Tomorrow, 22 March, Friday

    Time Temperature Precipitation Wind Pressure Humidity
    00:00 +6°C° 0 mm 4 mps 762 mmHg 92%
    01:00 +7°C° 0 mm 4 mps 762 mmHg 91%
    02:00 +7°C° 0 mm 4 mps 762 mmHg 92%
    03:00 +7°C° 0 mm 4 mps 761 mmHg 93%
    04:00 +7°C° 0 mm 4 mps 761 mmHg 93%
    05:00 +7°C° 0 mm 4 mps 762 mmHg 93%
    06:00 +8°C° 0 mm 4 mps 762 mmHg 93%
    07:00 +8°C° 0 mm 4 mps 762 mmHg 93%
    08:00 +8°C° 0 mm 4 mps 762 mmHg 90%
    09:00 +8°C° 0 mm 4 mps 763 mmHg 88%
    10:00 +10°C° 0 mm 4 mps 763 mmHg 86%
    11:00 +10°C° 0 mm 3 mps 763 mmHg 81%
    12:00 +10°C° 0 mm 3 mps 763 mmHg 76%
    13:00 +11°C° 0 mm 3 mps 763 mmHg 71%
    14:00 +11°C° 0 mm 3 mps 763 mmHg 65%
    15:00 +12°C° 0 mm 3 mps 763 mmHg 59%
    16:00 +14°C° 0 mm 2 mps 763 mmHg 53%
    17:00 +12°C° 0 mm 2 mps 763 mmHg 55%
    18:00 +10°C° 0 mm 2 mps 763 mmHg 58%
    19:00 +8°C° 0 mm 2 mps 763 mmHg 60%
    20:00 +9°C° 0 mm 1 mps 763 mmHg 59%
    21:00 +8°C° 0 mm 1 mps 763 mmHg 57%
    22:00 +7°C° 0 mm 1 mps 763 mmHg 55%
    23:00 +6°C° 0 mm 1 mps 763 mmHg 55%

    Day after tomorrow, 23 March, Saturday

    Time Temperature Precipitation Wind Pressure Humidity
    00:00 +6°C° 0 mm 1 mps 763 mmHg 54%
    01:00 +5°C° 0 mm 1 mps 763 mmHg 54%
    02:00 +5°C° 0 mm 1 mps 762 mmHg 54%
    03:00 +5°C° 0 mm 1 mps 762 mmHg 55%
    04:00 +4°C° 0 mm 1 mps 762 mmHg 55%
    05:00 +4°C° 0 mm 2 mps 762 mmHg 55%
    06:00 +4°C° 0 mm 2 mps 762 mmHg 55%
    07:00 +5°C° 0 mm 2 mps 761 mmHg 55%
    08:00 +7°C° 0 mm 2 mps 761 mmHg 51%
    09:00 +9°C° 0 mm 2 mps 761 mmHg 47%
    10:00 +12°C° 0 mm 2 mps 761 mmHg 43%
    11:00 +13°C° 0 mm 2 mps 760 mmHg 41%
    12:00 +14°C° 0 mm 2 mps 760 mmHg 39%
    13:00 +14°C° 0 mm 3 mps 759 mmHg 37%
    14:00 +15°C° 0 mm 2 mps 759 mmHg 38%
    15:00 +16°C° 0 mm 2 mps 758 mmHg 40%
    16:00 +16°C° 0 mm 2 mps 758 mmHg 41%
    17:00 +14°C° 0 mm 2 mps 758 mmHg 46%
    18:00 +13°C° 0 mm 2 mps 758 mmHg 52%
    19:00 +10°C° 0 mm 2 mps 757 mmHg 57%
    20:00 +10°C° 0 mm 2 mps 757 mmHg 61%
    21:00 +10°C° 0 mm 2 mps 757 mmHg 65%
    22:00 +9°C° 0 mm 2 mps 757 mmHg 69%
    23:00 +9°C° 0 mm 2 mps 757 mmHg 74%

    24 March, Sunday

    Time Temperature Precipitation Wind Pressure Humidity
    00:00 +9°C° 0 mm 2 mps 757 mmHg 80%
    01:00 +9°C° 0 mm 3 mps 757 mmHg 85%
    02:00 +8°C° 0 mm 3 mps 757 mmHg 87%
    03:00 +8°C° 0 mm 3 mps 757 mmHg 89%
    04:00 +7°C° 0 mm 4 mps 757 mmHg 91%
    05:00 +6°C° 0 mm 4 mps 758 mmHg 90%
    06:00 +6°C° 0 mm 4 mps 758 mmHg 89%
    07:00 +5°C° 0 mm 4 mps 758 mmHg 87%
    08:00 +6°C° 0 mm 4 mps 759 mmHg 82%
    09:00 +7°C° 0 mm 3 mps 759 mmHg 77%
    10:00 +8°C° 0 mm 3 mps 759 mmHg 71%
    11:00 +9°C° 0 mm 3 mps 759 mmHg 62%
    12:00 +10°C° 0 mm 3 mps 759 mmHg 52%
    13:00 +12°C° 0 mm 2 mps 758 mmHg 42%
    14:00 +12°C° 0 mm 2 mps 758 mmHg 41%
    15:00 +12°C° 0 mm 2 mps 757 mmHg 40%
    16:00 +12°C° 0 mm 2 mps 757 mmHg 38%
    17:00 +10°C° 0 mm 2 mps 757 mmHg 42%
    18:00 +8°C° 0 mm 2 mps 756 mmHg 46%
    19:00 +7°C° 0 mm 2 mps 756 mmHg 50%
    20:00 +7°C° 0 mm 2 mps 756 mmHg 50%
    21:00 +7°C° 0 mm 2 mps 756 mmHg 50%
    22:00 +8°C° 0 mm 1 mps 755 mmHg 50%
    23:00 +8°C° 0 mm 1 mps 755 mmHg 52%

    25 March, Monday

    Time Temperature Precipitation Wind Pressure Humidity
    00:00 +8°C° 0 mm 1 mps 754 mmHg 53%
    01:00 +7°C° 0 mm 1 mps 754 mmHg 54%
    02:00 +7°C° 0 mm 1 mps 753 mmHg 57%
    03:00 +7°C° 0 mm 1 mps 753 mmHg 59%
    04:00 +6°C° 0 mm 1 mps 752 mmHg 61%
    05:00 +7°C° 0 mm 1 mps 752 mmHg 63%
    06:00 +7°C° 0 mm 1 mps 752 mmHg 65%
    07:00 +6°C° 0 mm 2 mps 752 mmHg 66%
    08:00 +7°C° 0 mm 2 mps 751 mmHg 60%
    09:00 +8°C° 0 mm 3 mps 751 mmHg 54%
    10:00 +10°C° 0 mm 4 mps 751 mmHg 48%
    11:00 +9°C° 0 mm 5 mps 750 mmHg 45%
    12:00 +9°C° 0 mm 6 mps 749 mmHg 42%
    13:00 +9°C° 0 mm 7 mps 749 mmHg 39%
    14:00 +9°C° 0 mm 7 mps 748 mmHg 42%
    15:00 +8°C° 0 mm 7 mps 747 mmHg 44%
    16:00 +8°C° 0 mm 7 mps 747 mmHg 47%
    17:00 +6°C° 0.4 mm 7 mps 747 mmHg 51%
    18:00 +4°C° 0.4 mm 7 mps 747 mmHg 55%
    19:00 +3°C° 0.4 mm 7 mps 747 mmHg 59%
    20:00 +3°C° 0 mm 6 mps 747 mmHg 60%
    21:00 +2°C° 0 mm 6 mps 747 mmHg 62%
    22:00 +1°C° 0 mm 6 mps 747 mmHg 64%
    23:00 +1°C° 0 mm 6 mps 746 mmHg 65%

    26 March, Tuesday

    Time Temperature Precipitation Wind Pressure Humidity
    00:00 0°C° 0 mm 7 mps 746 mmHg 67%
    01:00 0°C° 0 mm 8 mps 745 mmHg 68%
    02:00 -1°C° 0 mm 8 mps 745 mmHg 70%
    03:00 -1°C° 0 mm 7 mps 745 mmHg 72%
    04:00 -1°C° 0 mm 7 mps 744 mmHg 73%
    05:00 -1°C° 0.2 mm 7 mps 744 mmHg 75%
    06:00 -1°C° 0.2 mm 7 mps 745 mmHg 76%
    07:00 -1°C° 0.2 mm 7 mps 745 mmHg 78%
    08:00 0°C° 0.3 mm 7 mps 745 mmHg 71%
    09:00 +1°C° 0.3 mm 8 mps 745 mmHg 65%
    10:00 +2°C° 0.3 mm 8 mps 746 mmHg 59%
    11:00 +2°C° 0.1 mm 8 mps 746 mmHg 57%
    12:00 +4°C° 0.1 mm 7 mps 746 mmHg 55%
    13:00 +4°C° 0.1 mm 7 mps 746 mmHg 53%
    14:00 +4°C° 0.2 mm 7 mps 747 mmHg 57%
    15:00 +4°C° 0.2 mm 7 mps 747 mmHg 60%
    16:00 +3°C° 0.2 mm 7 mps 747 mmHg 64%
    17:00 +3°C° 0.1 mm 7 mps 748 mmHg 67%
    18:00 +2°C° 0.1 mm 6 mps 749 mmHg 70%
    19:00 +2°C° 0.1 mm 6 mps 750 mmHg 74%
    20:00 +1°C° 0 mm 6 mps 750 mmHg 75%
    21:00 -1°C° 0 mm 7 mps 751 mmHg 77%
    22:00 -1°C° 0 mm 7 mps 751 mmHg 78%
    23:00 -1°C° 0 mm 7 mps 752 mmHg 78%
    Show more